When you browse on this site, cookies collect data to enhance your experience and personalize the content and advertising you see.
Visit our Privacy Policy to learn more. By continuing to use the site, you agree to this use of cookies and data.
  • In Hungary
  • List of Countries
  • For 7 days
  • Water Temperature
  • Satellite Maps
  • Weather Map
  • News
  • Weather Widgets
  • user-avatar
    Login

    Hourly Weather La Paz

    Today, 23 January, Wednesday

    Time Temperature Precipitation Wind Pressure Humidity
    00:00 +7°C° 0.1 mm 1 mps 475 mmHg 83%
    01:00 +7°C° 0.1 mm 1 mps 475 mmHg 83%
    02:00 +7°C° 0 mm 1 mps 474 mmHg 84%
    03:00 +6°C° 0 mm 1 mps 474 mmHg 85%
    04:00 +5°C° 0 mm 0 mps 474 mmHg 86%
    05:00 +7°C° 0.1 mm 1 mps 475 mmHg 81%
    06:00 +8°C° 0.1 mm 1 mps 475 mmHg 76%
    07:00 +9°C° 0.1 mm 1 mps 476 mmHg 72%
    08:00 +9°C° 0.3 mm 2 mps 477 mmHg 67%
    09:00 +10°C° 0.3 mm 2 mps 477 mmHg 63%
    10:00 +11°C° 0.3 mm 3 mps 478 mmHg 59%
    11:00 +12°C° 0.2 mm 4 mps 478 mmHg 56%
    12:00 +13°C° 0.2 mm 5 mps 478 mmHg 53%
    13:00 +14°C° 0.2 mm 5 mps 479 mmHg 51%
    14:00 +13°C° 0.2 mm 5 mps 478 mmHg 53%
    15:00 +13°C° 0.2 mm 5 mps 477 mmHg 55%
    16:00 +12°C° 0.2 mm 4 mps 476 mmHg 57%
    17:00 +11°C° 0 mm 4 mps 476 mmHg 63%
    18:00 +10°C° 0 mm 4 mps 475 mmHg 69%
    19:00 +8°C° 0 mm 3 mps 475 mmHg 75%
    20:00 +8°C° 0 mm 3 mps 475 mmHg 73%
    21:00 +8°C° 0 mm 3 mps 475 mmHg 72%
    22:00 +7°C° 0 mm 2 mps 476 mmHg 70%
    23:00 +7°C° 0 mm 2 mps 475 mmHg 69%

    Tomorrow, 24 January, Thursday

    Time Temperature Precipitation Wind Pressure Humidity
    00:00 +6°C° 0 mm 2 mps 475 mmHg 68%
    01:00 +6°C° 0 mm 2 mps 474 mmHg 68%
    02:00 +6°C° 0 mm 2 mps 474 mmHg 69%
    03:00 +5°C° 0 mm 2 mps 474 mmHg 70%
    04:00 +6°C° 0 mm 1 mps 473 mmHg 71%
    05:00 +7°C° 0 mm 1 mps 474 mmHg 68%
    06:00 +8°C° 0 mm 1 mps 475 mmHg 64%
    07:00 +9°C° 0 mm 1 mps 477 mmHg 61%
    08:00 +10°C° 0 mm 2 mps 478 mmHg 56%
    09:00 +11°C° 0 mm 3 mps 479 mmHg 52%
    10:00 +13°C° 0 mm 4 mps 480 mmHg 47%
    11:00 +14°C° 0 mm 4 mps 479 mmHg 44%
    12:00 +15°C° 0 mm 5 mps 479 mmHg 40%
    13:00 +16°C° 0 mm 5 mps 479 mmHg 37%
    14:00 +15°C° 0 mm 5 mps 478 mmHg 38%
    15:00 +14°C° 0 mm 5 mps 477 mmHg 39%
    16:00 +14°C° 0 mm 5 mps 477 mmHg 40%
    17:00 +12°C° 0 mm 5 mps 476 mmHg 48%
    18:00 +10°C° 0 mm 4 mps 475 mmHg 57%
    19:00 +8°C° 0 mm 3 mps 474 mmHg 65%
    20:00 +7°C° 0 mm 3 mps 474 mmHg 67%
    21:00 +6°C° 0 mm 2 mps 475 mmHg 69%
    22:00 +6°C° 0 mm 2 mps 475 mmHg 70%
    23:00 +5°C° 0 mm 2 mps 474 mmHg 70%

    Day after tomorrow, 25 January, Friday

    Time Temperature Precipitation Wind Pressure Humidity
    00:00 +6°C° 0 mm 1 mps 474 mmHg 70%
    01:00 +6°C° 0 mm 1 mps 473 mmHg 70%
    02:00 +5°C° 0 mm 1 mps 473 mmHg 71%
    03:00 +5°C° 0 mm 1 mps 473 mmHg 72%
    04:00 +4°C° 0 mm 0 mps 472 mmHg 73%
    05:00 +5°C° 0 mm 0 mps 474 mmHg 67%
    06:00 +7°C° 0 mm 0 mps 475 mmHg 60%
    07:00 +8°C° 0 mm 0 mps 476 mmHg 53%
    08:00 +11°C° 0 mm 1 mps 477 mmHg 47%
    09:00 +13°C° 0 mm 2 mps 478 mmHg 41%
    10:00 +14°C° 0 mm 3 mps 479 mmHg 35%
    11:00 +14°C° 0 mm 3 mps 479 mmHg 33%
    12:00 +15°C° 0 mm 4 mps 479 mmHg 31%
    13:00 +17°C° 0 mm 4 mps 479 mmHg 30%
    14:00 +16°C° 0 mm 5 mps 478 mmHg 32%
    15:00 +15°C° 0 mm 5 mps 477 mmHg 35%
    16:00 +15°C° 0 mm 5 mps 477 mmHg 37%
    17:00 +13°C° 0 mm 4 mps 476 mmHg 49%
    18:00 +11°C° 0 mm 4 mps 475 mmHg 61%
    19:00 +9°C° 0 mm 3 mps 474 mmHg 73%
    20:00 +8°C° 0 mm 2 mps 474 mmHg 76%
    21:00 +8°C° 0 mm 2 mps 475 mmHg 78%
    22:00 +8°C° 0 mm 2 mps 475 mmHg 81%
    23:00 +8°C° 0 mm 2 mps 475 mmHg 82%

    26 January, Saturday

    Time Temperature Precipitation Wind Pressure Humidity
    00:00 +9°C° 0 mm 1 mps 475 mmHg 82%
    01:00 +8°C° 0 mm 1 mps 474 mmHg 83%
    02:00 +8°C° 0 mm 1 mps 474 mmHg 84%
    03:00 +8°C° 0 mm 1 mps 474 mmHg 85%
    04:00 +6°C° 0 mm 0 mps 473 mmHg 86%
    05:00 +7°C° 0 mm 0 mps 474 mmHg 79%
    06:00 +8°C° 0 mm 0 mps 475 mmHg 72%
    07:00 +9°C° 0 mm 0 mps 476 mmHg 65%
    08:00 +11°C° 0 mm 1 mps 477 mmHg 56%
    09:00 +13°C° 0 mm 2 mps 478 mmHg 48%
    10:00 +14°C° 0 mm 3 mps 479 mmHg 40%
    11:00 +16°C° 0 mm 3 mps 479 mmHg 38%
    12:00 +15°C° 0 mm 4 mps 479 mmHg 36%
    13:00 +16°C° 0 mm 5 mps 478 mmHg 34%
    14:00 +16°C° 0 mm 5 mps 478 mmHg 37%
    15:00 +15°C° 0 mm 5 mps 477 mmHg 41%
    16:00 +14°C° 0 mm 5 mps 476 mmHg 45%
    17:00 +13°C° 0 mm 4 mps 476 mmHg 55%
    18:00 +11°C° 0 mm 4 mps 475 mmHg 66%
    19:00 +10°C° 0 mm 3 mps 475 mmHg 76%
    20:00 +9°C° 0 mm 3 mps 475 mmHg 78%
    21:00 +9°C° 0 mm 3 mps 475 mmHg 80%
    22:00 +8°C° 0 mm 2 mps 476 mmHg 82%
    23:00 +8°C° 0 mm 2 mps 475 mmHg 79%

    27 January, Sunday

    Time Temperature Precipitation Wind Pressure Humidity
    00:00 +8°C° 0 mm 2 mps 475 mmHg 77%
    01:00 +7°C° 0 mm 2 mps 474 mmHg 75%
    02:00 +7°C° 0 mm 2 mps 474 mmHg 76%
    03:00 +7°C° 0 mm 1 mps 473 mmHg 77%
    04:00 +7°C° 0 mm 1 mps 473 mmHg 78%
    05:00 +8°C° 0 mm 1 mps 474 mmHg 74%
    06:00 +9°C° 0 mm 1 mps 475 mmHg 69%
    07:00 +10°C° 0 mm 1 mps 476 mmHg 64%
    08:00 +10°C° 0 mm 2 mps 477 mmHg 57%
    09:00 +12°C° 0 mm 3 mps 478 mmHg 50%
    10:00 +14°C° 0 mm 4 mps 479 mmHg 43%
    11:00 +14°C° 0 mm 4 mps 479 mmHg 40%
    12:00 +15°C° 0 mm 4 mps 479 mmHg 38%
    13:00 +16°C° 0 mm 5 mps 478 mmHg 35%
    14:00 +16°C° 0 mm 5 mps 478 mmHg 38%
    15:00 +15°C° 0 mm 5 mps 477 mmHg 41%
    16:00 +14°C° 0 mm 5 mps 476 mmHg 45%
    17:00 +13°C° 0 mm 5 mps 476 mmHg 54%
    18:00 +11°C° 0 mm 4 mps 475 mmHg 64%
    19:00 +8°C° 0 mm 4 mps 475 mmHg 74%
    20:00 +9°C° 0 mm 3 mps 475 mmHg 77%
    21:00 +9°C° 0 mm 3 mps 475 mmHg 79%
    22:00 +8°C° 0 mm 2 mps 475 mmHg 82%
    23:00 +8°C° 0 mm 2 mps 474 mmHg 82%

    28 January, Monday

    Time Temperature Precipitation Wind Pressure Humidity
    00:00 +8°C° 0 mm 1 mps 474 mmHg 82%
    01:00 +8°C° 0 mm 1 mps 473 mmHg 83%
    02:00 +8°C° 0 mm 1 mps 473 mmHg 83%
    03:00 +7°C° 0 mm 1 mps 473 mmHg 83%
    04:00 +6°C° 0 mm 0 mps 472 mmHg 83%
    05:00 +8°C° 0 mm 1 mps 473 mmHg 78%
    06:00 +8°C° 0 mm 1 mps 474 mmHg 73%
    07:00 +9°C° 0 mm 1 mps 475 mmHg 68%
    08:00 +10°C° 0 mm 1 mps 475 mmHg 63%
    09:00 +11°C° 0 mm 1 mps 476 mmHg 57%
    10:00 +13°C° 0 mm 2 mps 477 mmHg 51%
    11:00 +13°C° 0.1 mm 2 mps 477 mmHg 52%
    12:00 +13°C° 0.1 mm 3 mps 476 mmHg 52%
    13:00 +14°C° 0.1 mm 3 mps 476 mmHg 52%
    14:00 +13°C° 0.6 mm 3 mps 475 mmHg 57%
    15:00 +12°C° 0.6 mm 4 mps 475 mmHg 63%
    16:00 +12°C° 0.6 mm 4 mps 474 mmHg 68%
    17:00 +11°C° 0.2 mm 4 mps 474 mmHg 74%
    18:00 +10°C° 0.2 mm 4 mps 474 mmHg 79%
    19:00 +8°C° 0.2 mm 4 mps 473 mmHg 85%
    20:00 +7°C° 0.1 mm 4 mps 474 mmHg 84%
    21:00 +8°C° 0.1 mm 3 mps 474 mmHg 84%
    22:00 +8°C° 0.1 mm 3 mps 475 mmHg 83%
    23:00 +8°C° 0.2 mm 3 mps 474 mmHg 84%
    Show more